AB5PM Weather Reports


time (UTC)temp
C
wind
direction
speed
KPH
gust
KPH
rain 1hr
cm
rain 24hr
cm
rain mn
cm
humidity
%
barometer
mb
20260510124518 17 167 1.6 11.3 0.00 0.46 0.46 93 1014.9
20260510123021 17 114 1.6 6.4 0.00 0.46 0.46 92 1014.9
20260510121506 17 128 0.0 0.0 0.00 0.46 0.46 92 1014.7
20260510120016 17 129 0.0 3.2 0.00 0.46 0.46 92 1014.8
20260510113021 17 112 0.0 3.2 0.00 0.46 0.46 91 1014.5
20260510111524 17 111 0.0 1.6 0.00 0.46 0.46 91 1014.4
20260510103019 17 170 3.2 8.0 0.13 0.46 0.46 90 1013.9
20260510101522 17 165 1.6 9.7 0.25 0.46 0.46 90 1013.5
20260510100027 17 101 1.6 12.9 0.46 0.46 0.46 89 1014.0
20260510094521 17 61 1.6 11.3 0.46 0.46 0.46 88 1014.3
20260510093016 18 77 3.2 17.7 0.33 0.33 0.33 84 1014.0
20260510091522 19 77 8.0 22.5 0.20 0.20 0.20 81 1013.4
20260510090024 20 34 4.8 24.1 0.00 0.00 0.00 78 1015.3
20260510084523 21 13 6.4 24.1 0.00 0.00 0.00 77 1013.7
20260510083016 21 69 3.2 11.3 0.00 0.00 0.00 83 1013.3
20260510081533 22 9 3.2 17.7 0.00 0.00 0.00 85 1012.9
20260510080022 23 5 0.0 6.4 0.00 0.00 0.00 88 1013.1
20260510074525 23 46 0.0 4.8 0.00 0.00 0.00 87 1012.4
20260510073030 23 114 1.6 12.9 0.00 0.00 0.00 87 1011.5
20260510071517 23 84 1.6 6.4 0.00 0.00 0.00 86 1011.2
20260510070024 23 49 1.6 16.1 0.00 0.00 0.00 85 1010.9
20260510064522 23 92 6.4 16.1 0.00 0.00 0.00 85 1010.8
20260510063010 23 5 3.2 24.1 0.00 0.00 0.00 84 1012.8
20260510061522 23 64 6.4 16.1 0.00 0.00 0.00 84 1013.3
20260510060018 23 16 1.6 9.7 0.00 0.00 0.00 83 1013.0
20260510054520 23 41 0.0 6.4 0.00 0.00 0.00 82 1011.9
20260510053025 23 101 3.2 11.3 0.00 0.00 0.00 80 1010.6
20260510051526 24 109 1.6 9.7 0.00 0.00 0.00 79 1010.3
20260510050016 24 116 1.6 8.0 0.00 0.00 0.00 78 1010.0
20260510044522 24 144 1.6 11.3 0.00 0.00 0.00 76 1010.0
20260510043024 24 124 3.2 11.3 0.00 0.00 0.00 73 1009.7
20260510041523 24 124 1.6 8.0 0.00 0.00 0.00 73 1009.7
20260510040026 24 142 1.6 8.0 0.00 0.00 0.00 72 1009.6
20260510034518 24 117 1.6 11.3 0.00 0.00 0.00 72 1009.9
20260510033023 25 113 1.6 9.7 0.00 0.00 0.00 71 1010.2
20260510031540 25 121 0.0 12.9 0.00 0.00 0.00 70 1010.0
20260510030034 25 98 0.0 4.8 0.00 0.00 0.00 70 1010.0
20260510024526 25 120 1.6 6.4 0.00 0.00 0.00 69 1009.9
20260510023021 25 98 1.6 6.4 0.00 0.00 0.00 68 1010.0
20260510021529 26 88 0.0 6.4 0.00 0.00 0.00 66 1009.8
20260510020028 26 106 0.0 4.8 0.00 0.00 0.00 65 1009.8
20260510014528 26 80 0.0 4.8 0.00 0.00 0.00 63 1009.6
20260510013026 27 88 0.0 4.8 0.00 0.00 0.00 62 1009.5
20260510011528 27 99 0.0 6.4 0.00 0.00 0.00 60 1009.3
20260510010010 28 111 0.0 9.7 0.00 0.00 0.00 57 1009.0
20260510004509 28 92 0.0 6.4 0.00 0.00 0.00 53 1009.0
20260510003010 29 97 1.6 12.9 0.00 0.00 0.00 53 1008.9
20260510001510 29 106 3.2 12.9 0.00 0.00 0.00 53 1008.9
20260510000013 30 113 3.2 12.9 0.00 0.00 0.00 53 1008.9
20260509234511 30 114 3.2 9.7 0.00 0.00 0.00 53 1009.0
20260509233013 30 110 3.2 12.9 0.00 0.00 0.00 53 1009.2
20260509231512 30 105 3.2 11.3 0.00 0.00 0.00 54 1009.1
20260509230016 31 84 4.8 11.3 0.00 0.00 0.00 54 1009.1
20260509224515 31 152 1.6 9.7 0.00 0.00 0.00 56 1009.2
20260509223018 31 184 3.2 12.9 0.00 0.00 0.00 55 1009.0
20260509221512 31 77 4.8 14.5 0.00 0.00 0.00 54 1008.9
20260509220015 31 109 3.2 14.5 0.00 0.00 0.00 55 1008.8
20260509214515 31 98 1.6 11.3 0.00 0.00 0.00 55 1008.9
20260509213015 31 88 4.8 11.3 0.00 0.00 0.00 56 1009.0
20260509211516 31 84 1.6 11.3 0.00 0.00 0.00 56 1009.3
20260509210016 31 90 3.2 9.7 0.00 0.00 0.00 56 1009.6
20260509204516 31 122 3.2 9.7 0.00 0.00 0.00 57 1009.7
20260509203015 31 113 1.6 9.7 0.00 0.00 0.00 54 1009.7
20260509200016 31 332 1.6 9.7 0.00 0.00 0.00 51 1010.0
20260509194516 31 336 1.6 11.3 0.00 0.00 0.00 48 1010.2
20260509193021 30 87 3.2 6.4 0.00 0.00 0.00 54 1010.3
20260509190014 30 46 4.8 12.9 0.00 0.00 0.00 59 1010.4
20260509184521 29 84 3.2 9.7 0.00 0.00 0.00 59 1010.7
20260509183004 29 291 1.6 9.7 0.00 0.00 0.00 63 1010.8
20260509181507 28 49 1.6 9.7 0.00 0.00 0.00 67 1011.0
20260509180011 27 321 3.2 9.7 0.00 0.00 0.00 69 1011.0
20260509174520 26 300 3.2 6.4 0.00 0.00 0.00 72 1011.3
20260509173052 26 300 1.6 6.4 0.00 0.00 0.00 72 1011.5
20260509171512 26 22 0.0 9.7 0.00 0.00 0.00 74 1011.7
20260509170014 25 14 3.2 8.0 0.00 0.00 0.00 75 1011.7
20260509164518 25 360 3.2 12.9 0.00 0.00 0.00 76 1011.6
20260509163024 25 48 3.2 12.9 0.00 0.00 0.00 78 1011.7
20260509161522 23 319 1.6 12.9 0.00 0.00 0.00 80 1011.8
20260509160014 23 360 3.2 6.4 0.00 0.00 0.00 81 1011.7
20260509154512 23 360 1.6 8.0 0.00 0.00 0.00 83 1011.8
20260509153030 22 5 3.2 12.9 0.00 0.00 0.00 84 1011.7
20260509151523 22 281 1.6 8.0 0.00 0.00 0.00 87 1011.7
20260509150009 21 334 1.6 6.4 0.00 0.00 0.00 88 1011.7
20260509144510 21 302 3.2 9.7 0.00 0.00 0.00 89 1011.7
20260509143016 21 355 0.0 8.0 0.00 0.00 0.00 90 1011.5
20260509141520 21 292 1.6 8.0 0.00 0.00 0.00 91 1011.4
20260509140025 21 310 3.2 6.4 0.00 0.00 0.00 91 1011.3
20260509134510 21 319 0.0 4.8 0.00 0.00 0.00 92 1011.3
20260509133010 20 257 0.0 4.8 0.00 0.00 0.00 92 1011.1
20260509131516 20 38 0.0 0.0 0.00 0.00 0.00 92 1011.2